This demonstration page uses our WeatherBlox Daily Observations layout. Learn more.

38.89511, -77.03637

Hourly Observations for January 25, 2016

Temp ( °F °C ) Dew Point ( °F °C ) Humidity (%) Winds ( mph kmh ) Pressure ( in mb ) Visibility ( mi km ) Precip ( " mm )
12:52 am 00:52 Hazy 22 -5.6 17 -8.3 82 82 SSW 3 6 30.18 1022 6 9.65604 0 0
1:52 am 01:52 Clear with Mist and Fog 20 -6.7 17 -8.3 89 89 N 3 6 30.19 1023 6 9.65604 0 0
2:52 am 02:52 Clear with Mist and Fog 19 -7.2 16 -8.9 88 88 Calm 30.2 1023 6 9.65604 0 0
3:52 am 03:52 Clear with Mist and Fog 19 -7.2 16 -8.9 88 88 N 3 6 30.2 1023 6 9.65604 0 0
4:52 am 04:52 Clear with Mist and Fog 19 -7.2 17 -8.3 92 92 Calm 30.21 1023 6 9.65604 0 0
5:52 am 05:52 Mostly Cloudy with Mist and Fog 17 -8.3 15 -9.4 92 92 NE 5 7 30.24 1024 6 9.65604 0 0
6:52 am 06:52 Mostly Cloudy 18 -7.8 15 -9.4 88 88 NNE 5 7 30.25 1024 7 11.26538 0 0
7:52 am 07:52 Mostly Cloudy with Mist and Fog 18 -7.8 15 -9.4 88 88 N 3 6 30.27 1025 6 9.65604 0 0
8:52 am 08:52 Cloudy 21 -6.1 16 -8.9 81 81 NE 7 11 30.29 1026 7 11.26538 0 0
9:52 am 09:52 Cloudy 26 -3.3 18 -7.8 71 71 N 3 6 30.31 1027 7 11.26538 0 0
10:52 am 10:52 Cloudy 30 -1.1 19 -7.2 64 64 Calm 30.31 1027 10 16.0934 0 0
11:52 am 11:52 Cloudy 36 2.2 19 -7.2 50 50 Calm 30.3 1026 10 16.0934 0 0
12:52 pm 12:52 Cloudy 38 3.3 21 -6.1 51 51 Calm 30.27 1025 10 16.0934 0 0
1:52 pm 13:52 Cloudy 39 3.9 19 -7.2 45 45 Calm 30.25 1024 10 16.0934 0 0
2:52 pm 14:52 Mostly Cloudy 40 4.4 21 -6.1 47 47 Calm 30.24 1024 10 16.0934 0 0
3:52 pm 15:52 Mostly Cloudy 41 5 19 -7.2 41 41 Calm 30.24 1024 10 16.0934 0 0
4:52 pm 16:52 Mostly Cloudy 35 1.7 21 -6.1 57 57 Calm 30.25 1024 10 16.0934 0 0
5:52 pm 17:52 Mostly Cloudy 36 2.2 24 -4.4 62 62 ESE 3 6 30.26 1025 10 16.0934 0 0
6:52 pm 18:52 Mostly Cloudy 32 0 24 -4.4 73 73 Calm 30.27 1025 10 16.0934 0 0
7:52 pm 19:52 Mostly Cloudy 34 1.1 27 -2.8 76 76 Calm 30.26 1025 10 16.0934 0 0
8:52 pm 20:52 Cloudy 31 -0.6 26 -3.3 82 82 S 3 6 30.24 1024 10 16.0934 0 0
9:52 pm 21:52 Cloudy 34 1.1 26 -3.3 73 73 SSW 5 7 30.23 1024 9 14.48406 0 0
10:52 pm 22:52 Cloudy 36 2.2 25 -3.9 64 64 WSW 3 6 30.21 1023 9 14.48406 0 0
11:52 pm 23:52 Mostly Cloudy 36 2.2 26 -3.3 67 67 WSW 6 9 30.2 1023 10 16.0934 0 0

Powered by AerisWeather